Home > Time Zones > World Clock > Weather > Spain > Jaén > Past weeks

Flag for Spain Weather past 2 weeks in Jaén, Spain

Now
70 °F

Mild.


Feels Like: 70 °F
Forecast: 70 / 104 °F
Wind: 3 mph from Southwest

Location: Granada / Aeropuerto

Current Time: Aug 5, 2015 at 6:30:35 AM

Latest Report: Aug 5, 2015 at 5:00 AM


Visibility: 14 mi

Pressure: 29.96 "Hg (28.05 "Hg at 565m altitude)

Humidity: 58%

Dew point: 54 °F

Location of JaénLocation

Historic Weather in Jaén — Graph

°F

Jaén temperature yesterday

Maximum temperature yesterday: 103 °F (at 5:00 PM)
Minimum temperature yesterday: 68 °F (at 8:00 AM)
Average temperature yesterday: 85 °F

Past Weeks' High & Low Weather Summary

 TemperatureHumidityPressure
High108 °F (Jul 28, 5:00 PM)84% (Aug 3, 7:00 AM)30.03 "Hg (Aug 3, 7:00 AM)
Low61 °F (Jul 26, 7:00 AM)9% (Jul 22, 4:00 PM)29.63 "Hg (Jul 31, 7:00 PM)
Average83 °F40%29.87 "Hg
* Reported Jul 21 4:00 AM — Aug 5 4:00 AM, Jaén, Weather by CustomWeather, © 2015

Note: Actual official high and low records may vary slightly from our data, if they occured in-between our weather recording intervals... More about our weather records

Advertising

Jaén weather history for previous 24 hours

 ConditionsComfort  
Time TempWeatherWind HumidityBarometerVisibility
4:00 AM
Wed, Aug 5
70 °FMild.No wind56%29.95 "Hg11 mi
3:00 AM73 °FMild.No wind52%29.94 "Hg17 mi
2:00 AM75 °FMild.1 mph51%29.93 "Hg14 mi
1:00 AM79 °FWarm.No wind48%29.92 "Hg9 mi
12:00 AM82 °FWarm.No wind47%29.90 "Hg15 mi
10:00 PM
Tue, Aug 4
88 °FHot.7 mph34%29.85 "Hg14 mi
9:00 PM92 °FHot.8 mph32%29.82 "Hg11 mi
8:00 PM98 °FPassing clouds.10 mph24%29.80 "Hg16 mi
7:00 PM101 °FExtremely hot.9 mph21%29.79 "Hg16 mi
6:00 PM102 °FExtremely hot.13 mph19%29.79 "Hg14 mi
5:00 PM103 °FPassing clouds.14 mph17%29.80 "Hg19 mi
4:00 PM102 °FExtremely hot.10 mph24%29.81 "Hg11 mi
3:00 PM99 °FSunny.10 mph30%29.83 "Hg12 mi
2:00 PM94 °FSunny.9 mph38%29.87 "Hg12 mi
1:00 PM91 °FHot.6 mph45%29.89 "Hg11 mi
12:00 PM85 °FWarm.3 mph54%29.93 "Hg9 mi
11:00 AM82 °FPassing clouds.1 mph60%29.94 "Hg9 mi
10:00 AM78 °FWarm.2 mph67%29.96 "Hg11 mi
9:00 AM74 °FSunny.2 mph75%29.98 "Hg6 mi
8:00 AM68 °FSunny.2 mph83%30.00 "Hg9 mi
7:00 AM69 °FMild.2 mph82%30.00 "Hg9 mi
6:00 AM70 °FMild.No wind79%29.99 "Hg9 mi
Weather by CustomWeather, © 2015

See weather overviewHow to use our weather pages